Location: Daytona Beach
(29.2106°N, 81.0231°W)
Time: 21:56:25
(UTC-04:00)

RS-15 - Pass Details

Date: 29 September 2021
Orbit: 1884 x 2160 km, 64.8° (Epoch: 22 October)

Event Time Altitude Azimuth Distance (km) Brightness Sun altitude
Rises 22:43:09 0° 339° (NNW) 5,618 10.9 -45.5°
Reaches altitude 10° 22:48:22 10° 357° (N) 4,647 10.2 -46.5°
Enters shadow 22:55:10 19° 32° (NNE) 3,971 9.5 -47.8°
